HVN655 VVTS-WSSS

Flight info

Callsign HVN655
Flight time N/A
Altitude 36000
Route NIXIV5A NIXIV L643 CN L642 ESPOB Q801 ESBUM Q802 ELALO ELALO1A
Aircraft B772/H-SDE2E3FGHIJ5LORVWXY/LB1D1

Departure

Time N/A
Airport Tan Son Nhat International Airport (VVTS)

Arrival

Time 2026-05-05 10:47
Airport Singapore Changi Airport (WSSS)
Time Latitude Longitude Altitude Speed Heading
2026-05-05 10:23 2.33559 104.10477 18722 ft 344 kts 178°
2026-05-05 10:24 2.31154 104.10488 18431 ft 342 kts 178°
2026-05-05 10:24 2.28776 104.10494 18143 ft 341 kts 178°
2026-05-05 10:24 2.26401 104.10497 17857 ft 340 kts 178°
2026-05-05 10:24 2.24078 104.10498 17575 ft 338 kts 178°
2026-05-05 10:25 2.21722 104.10499 17290 ft 336 kts 178°
2026-05-05 10:25 2.19394 104.10500 17009 ft 335 kts 178°
2026-05-05 10:25 2.17052 104.10500 16727 ft 333 kts 178°
2026-05-05 10:25 2.14740 104.10500 16448 ft 332 kts 178°
2026-05-05 10:26 2.12439 104.10500 16170 ft 330 kts 178°
2026-05-05 10:26 2.10146 104.10500 15893 ft 328 kts 179°
2026-05-05 10:26 2.07863 104.10500 15616 ft 327 kts 179°
2026-05-05 10:26 2.05588 104.10500 15342 ft 325 kts 179°
2026-05-05 10:27 2.03351 104.10500 15072 ft 324 kts 178°
2026-05-05 10:27 2.01106 104.10500 14800 ft 323 kts 179°
2026-05-05 10:27 1.98861 104.10500 14529 ft 321 kts 179°
2026-05-05 10:27 1.96631 104.10506 14260 ft 319 kts 178°
2026-05-05 10:28 1.94408 104.10517 13992 ft 318 kts 178°
2026-05-05 10:28 1.92197 104.10528 13725 ft 317 kts 179°
2026-05-05 10:28 1.90022 104.10538 13462 ft 315 kts 179°
2026-05-05 10:28 1.87834 104.10549 13197 ft 314 kts 179°
2026-05-05 10:29 1.85656 104.10558 12934 ft 312 kts 179°
2026-05-05 10:29 1.83485 104.10568 12676 ft 311 kts 179°
2026-05-05 10:29 1.81325 104.10578 12420 ft 310 kts 179°
2026-05-05 10:29 1.79166 104.10588 12163 ft 308 kts 179°
2026-05-05 10:30 1.77373 104.10596 11944 ft 307 kts 179°
2026-05-05 10:30 1.75408 104.10605 11853 ft 301 kts 179°
2026-05-05 10:30 1.73328 104.10614 11646 ft 306 kts 179°
2026-05-05 10:30 1.71185 104.10623 11388 ft 308 kts 179°
2026-05-05 10:31 1.69052 104.10633 11130 ft 304 kts 179°
2026-05-05 10:31 1.66941 104.10643 10875 ft 303 kts 179°
2026-05-05 10:31 1.64829 104.10652 10619 ft 303 kts 179°
2026-05-05 10:31 1.62720 104.10662 10365 ft 301 kts 179°
2026-05-05 10:32 1.60637 104.10770 10111 ft 298 kts 174°
2026-05-05 10:32 1.58604 104.11032 9862 ft 292 kts 171°
2026-05-05 10:32 1.56639 104.11350 9626 ft 286 kts 170°
2026-05-05 10:32 1.54680 104.11666 9388 ft 287 kts 171°
2026-05-05 10:33 1.53020 104.11919 9188 ft 288 kts 172°
2026-05-05 10:33 1.51008 104.12218 8947 ft 288 kts 172°
2026-05-05 10:33 1.49022 104.12510 8734 ft 289 kts 172°
2026-05-05 10:33 1.47021 104.12702 8491 ft 288 kts 180°
2026-05-05 10:34 1.45099 104.12446 8284 ft 283 kts 193°
2026-05-05 10:34 1.43832 104.12089 8306 ft 283 kts 197°
2026-05-05 10:34 1.41363 104.11209 7993 ft 280 kts 202°
2026-05-05 10:34 1.39608 104.10480 7629 ft 263 kts 204°
2026-05-05 10:35 1.37980 104.09774 7262 ft 249 kts 204°
2026-05-05 10:35 1.36381 104.09082 7059 ft 253 kts 204°
2026-05-05 10:35 1.34778 104.08393 6849 ft 252 kts 204°
2026-05-05 10:35 1.33167 104.07705 6659 ft 247 kts 204°
2026-05-05 10:36 1.32660 104.07489 6601 ft 245 kts 204°
2026-05-05 10:37 1.32152 104.07272 6546 ft 246 kts 203°
2026-05-05 10:38 1.30603 104.06615 6429 ft 244 kts 203°
2026-05-05 10:38 1.29676 104.06221 6277 ft 243 kts 203°
2026-05-05 10:38 1.27593 104.05337 5922 ft 241 kts 203°
2026-05-05 10:38 1.26575 104.04906 5785 ft 238 kts 203°
2026-05-05 10:39 1.25054 104.04261 5585 ft 239 kts 203°
2026-05-05 10:39 1.23027 104.03402 5318 ft 236 kts 203°
2026-05-05 10:39 1.22006 104.02970 5184 ft 237 kts 203°
2026-05-05 10:39 1.19990 104.02116 4919 ft 236 kts 203°
2026-05-05 10:40 1.18481 104.01477 4721 ft 236 kts 203°
2026-05-05 10:40 1.17481 104.01053 4590 ft 236 kts 203°
2026-05-05 10:40 1.15982 104.00395 4389 ft 233 kts 206°
2026-05-05 10:40 1.14753 103.99357 4181 ft 231 kts 232°
2026-05-05 10:41 1.14261 103.97895 4134 ft 216 kts 264°
2026-05-05 10:41 1.14617 103.96526 4082 ft 200 kts 296°
2026-05-05 10:41 1.15615 103.95582 3898 ft 201 kts 323°
2026-05-05 10:41 1.16877 103.94996 3753 ft 199 kts 339°
2026-05-05 10:42 1.19519 103.94091 3488 ft 202 kts 341°
2026-05-05 10:42 1.20827 103.93647 3270 ft 199 kts 341°
2026-05-05 10:42 1.21862 103.93296 3018 ft 203 kts 341°
2026-05-05 10:43 1.22306 103.93148 2898 ft 203 kts 341°
2026-05-05 10:44 1.23002 103.92964 2717 ft 208 kts 347°
2026-05-05 10:44 1.24418 103.93060 2355 ft 209 kts 15°
2026-05-05 10:44 1.25725 103.93689 1991 ft 209 kts 27°
2026-05-05 10:44 1.27001 103.94351 1713 ft 199 kts 27°
2026-05-05 10:45 1.28203 103.94931 1452 ft 186 kts 24°
2026-05-05 10:45 1.29333 103.95410 1213 ft 164 kts 22°
2026-05-05 10:45 1.30310 103.95819 1019 ft 143 kts 22°
2026-05-05 10:45 1.31187 103.96188 868 ft 136 kts 22°
2026-05-05 10:46 1.32045 103.96549 679 ft 135 kts 23°
2026-05-05 10:46 1.32846 103.96887 493 ft 134 kts 23°
2026-05-05 10:46 1.33714 103.97253 316 ft 134 kts 23°
2026-05-05 10:46 1.34526 103.97595 148 ft 134 kts 23°
2026-05-05 10:47 1.35360 103.97947 45 ft 123 kts 23°
2026-05-05 10:47 1.36024 103.98226 36 ft 88 kts 22°
2026-05-05 10:47 1.36450 103.98406 36 ft 45 kts 23°
2026-05-05 10:47 1.36641 103.98509 36 ft 28 kts 41°
2026-05-05 10:48 1.36739 103.98631 36 ft 17 kts 71°
2026-05-05 10:48 1.36698 103.98707 36 ft 8 kts 184°
2026-05-05 10:48 1.36652 103.98686 36 ft 7 kts 205°
2026-05-05 10:48 1.36601 103.98664 36 ft 10 kts 203°
2026-05-05 10:49 1.36533 103.98635 36 ft 10 kts 202°
2026-05-05 10:49 1.36468 103.98608 36 ft 10 kts 202°
2026-05-05 10:49 1.36409 103.98583 36 ft 12 kts 203°
2026-05-05 10:49 1.36317 103.98545 36 ft 20 kts 203°
2026-05-05 10:50 1.36175 103.98484 36 ft 22 kts 202°
2026-05-05 10:50 1.36037 103.98426 36 ft 20 kts 203°
2026-05-05 10:50 1.35971 103.98397 36 ft 3 kts 356°
2026-05-05 10:50 1.35995 103.98364 36 ft 10 kts 266°
2026-05-05 10:51 1.35942 103.98333 36 ft 17 kts 178°
2026-05-05 10:51 1.35807 103.98321 36 ft 19 kts 192°
2026-05-05 10:51 1.35686 103.98278 36 ft 18 kts 202°
2026-05-05 10:51 1.35573 103.98232 36 ft 17 kts 202°
2026-05-05 10:52 1.35466 103.98186 36 ft 16 kts 203°
2026-05-05 10:52 1.35372 103.98148 36 ft 7 kts 187°
2026-05-05 10:52 1.35333 103.98162 36 ft 6 kts 130°
2026-05-05 10:52 1.35318 103.98200 36 ft 6 kts 88°
2026-05-05 10:53 1.35342 103.98230 36 ft 7 kts 25°
2026-05-05 10:53 1.35381 103.98282 36 ft 13 kts 92°
2026-05-05 10:53 1.35343 103.98316 36 ft 6 kts 197°
2026-05-05 10:53 1.35282 103.98292 36 ft 7 kts 200°
2026-05-05 10:54 1.35259 103.98298 36 ft 3 kts 137°
2026-05-05 10:54 1.35248 103.98317 36 ft 3 kts 116°
2026-05-05 10:54 1.35240 103.98334 36 ft 3 kts 113°
2026-05-05 10:54 1.35233 103.98349 36 ft 2 kts 113°
2026-05-05 10:55 1.35228 103.98363 36 ft 2 kts 113°
2026-05-05 10:55 1.35224 103.98372 36 ft 0 kts 112°
2026-05-05 10:55 1.35223 103.98375 36 ft 1 kts 112°
2026-05-05 10:55 1.35221 103.98377 36 ft 0 kts 112°
2026-05-05 10:56 1.35221 103.98379 36 ft 0 kts 112°
2026-05-05 10:56 1.35219 103.98383 36 ft 0 kts 112°
2026-05-05 10:56 1.35219 103.98384 36 ft 0 kts 112°